Terug naar catalogus

STARLINK-31340

ActiefCommunicatieVLEO
NORAD 59170·PAYLOAD·🇺🇸 United States

Gelanceerd Mar 4, 2024 vanaf Cape Canaveral Space Force Station

Loading…

Volgende Passages (komende 24 uur)

TLE

VersSource: CelesTrak SupGP

Epoch: Sep 15, 2026, 01:56 UTC

1 59170C 24044U   26258.08104167  .00011336  00000+0  41057-3 0  2587
2 59170  43.0003  77.8908 0001466 274.7860 241.0784 15.27575152    11

Volg STARLINK-31340 in realtime met AllMySat

Download on the App Store